I1SXT-13 Weather Reports


time (UTC)temp
C
wind
direction
speed
KPH
gust
KPH
rain 1hr
cm
rain 24hr
cm
rain mn
cm
humidity
%
barometer
mb
20260506050927 13 0.0 0.0 0.00 0.00 0.10 96 1008.1
20260506050430 14 0.0 0.0 0.00 0.00 0.10 97 1007.6
20260506044924 13 0.0 0.0 0.00 0.00 0.08 96 1008.5
20260506044427 13 0.0 0.0 0.00 0.00 0.08 96 1008.5
20260506043923 13 0.0 0.0 0.00 0.00 0.08 96 1007.9
20260506043426 13 0.0 0.0 0.00 0.00 0.08 95 1008.3
20260506042929 13 0.0 0.0 0.00 0.00 0.08 96 1007.9
20260506042425 13 0.0 0.0 0.00 0.00 0.08 96 1008.4
20260506041928 13 0.0 0.0 0.00 0.00 0.08 95 1008.6
20260506041424 13 0.0 0.0 0.00 0.00 0.08 95 1008.4
20260506040927 13 0.0 0.0 0.00 0.00 0.08 95 1009.1
20260506040429 13 0.0 0.0 0.00 0.00 0.08 95 1008.3
20260506035925 13 0.0 0.0 0.00 0.00 0.08 96 1008.0
20260506035428 13 0.0 0.0 0.00 0.00 0.08 96 1008.3
20260506034924 13 0.0 0.0 0.00 0.00 0.08 96 1008.6
20260506033426 13 0.0 0.0 0.00 0.00 0.08 96 1009.4
20260506032929 13 0.0 0.0 0.00 0.00 0.08 96 1008.2
20260506032425 13 0.0 0.0 0.00 0.00 0.08 96 1008.7
20260506031927 13 0.0 0.0 0.00 0.00 0.08 96 1009.8
20260506030926 13 0.0 0.0 0.00 0.00 0.08 96 1009.0
20260506030429 14 0.0 0.0 0.00 0.00 0.08 96 1009.1
20260506025925 13 0.0 0.0 0.00 0.00 0.08 95 1008.7
20260506025428 13 0.0 0.0 0.00 0.00 0.08 95 1009.2
20260506024924 13 0.0 0.0 0.00 0.00 0.08 94 1010.0
20260506024427 14 0.0 0.0 0.00 0.00 0.08 94 1009.0
20260506023425 14 0.0 0.0 0.00 0.00 0.08 92 1008.3
20260506022928 14 0.0 0.0 0.00 0.00 0.08 93 1008.5
20260506022424 14 0.0 0.0 0.00 0.00 0.08 93 1008.3
20260506021927 13 0.0 0.0 0.00 0.00 0.08 94 1008.7
20260506021423 13 0.0 0.0 0.00 0.00 0.05 94 1008.8
20260506020926 13 0.0 0.0 0.00 0.00 0.05 94 1009.4
20260506020429 13 0.0 0.0 0.00 0.00 0.05 94 1009.0
20260506015925 13 0.0 0.0 0.00 0.00 0.05 94 1009.5
20260506015428 13 0.0 0.0 0.00 0.00 0.05 94 1008.9
20260506014924 13 0.0 0.0 0.00 0.00 0.05 94 1009.2
20260506014426 13 0.0 0.0 0.00 0.00 0.05 94 1009.8
20260506013929 13 0.0 0.0 0.00 0.00 0.05 94 1009.2
20260506013425 13 0.0 0.0 0.00 0.00 0.05 93 1009.6
20260506012928 13 0.0 0.0 0.00 0.00 0.05 94 1010.1
20260506012424 13 0.0 0.0 0.00 0.00 0.05 94 1010.4
20260506011927 13 0.0 0.0 0.00 0.00 0.05 94 1010.0
20260506011430 13 0.0 0.0 0.00 0.00 0.05 94 1010.2
20260506010926 13 0.0 0.0 0.00 0.00 0.05 94 1010.6
20260506005925 14 0.0 0.0 0.00 0.00 0.05 94 1010.5
20260506005428 14 0.0 0.0 0.00 0.00 0.03 94 1010.1
20260506004924 14 0.0 0.0 0.00 0.00 0.03 93 1010.4
20260506004426 14 0.0 0.0 0.00 0.00 0.03 93 1011.1
20260506003929 14 0.0 0.0 0.00 0.00 0.03 93 1011.4
20260506003425 14 0.0 0.0 0.00 0.00 0.03 93 1011.6
20260506002928 14 0.0 0.0 0.00 0.00 0.03 93 1011.2
20260506002424 14 0.0 0.0 0.00 0.00 0.03 94 1010.5
20260506001927 14 0.0 0.0 0.00 0.00 0.03 93 1010.9
20260506001430 14 0.0 0.0 0.00 0.00 0.03 93 1011.1
20260506000926 14 0.0 0.0 0.00 0.00 0.00 92 1011.5
20260506000431 13 0.0 0.0 0.00 0.00 0.00 92 1011.2
20260505235924 14 0.0 0.0 0.00 0.00 0.00 91 1011.6
20260505235427 14 0.0 0.0 0.00 0.00 0.00 90 1010.6
20260505234923 15 0.0 0.0 0.00 0.00 0.00 85 1011.6
20260505234426 15 0.0 0.0 0.00 0.00 0.00 84 1011.4
20260505233425 15 0.0 0.0 0.00 0.00 0.00 82 1011.3
20260505232928 15 0.0 0.0 0.00 0.00 0.00 81 1011.5
20260505232424 15 0.0 0.0 0.00 0.00 0.00 81 1011.9
20260505231429 15 0.0 0.0 0.00 0.00 0.00 82 1011.5
20260505230428 15 0.0 0.0 0.00 0.00 0.00 83 1011.7
20260505225924 15 0.0 0.0 0.00 0.00 0.00 83 1012.0
20260505225427 15 0.0 0.0 0.00 0.00 0.00 85 1012.0
20260505224930 15 0.0 0.0 0.00 0.00 0.00 85 1011.8
20260505224426 15 0.0 0.0 0.00 0.00 0.00 86 1011.3
20260505223929 15 0.0 0.0 0.00 0.00 0.00 85 1012.4
20260505222424 15 0.0 0.0 0.00 0.00 0.00 86 1012.2
20260505221927 15 0.0 0.0 0.00 0.00 0.00 85 1011.9
20260505221429 15 0.0 0.0 0.00 0.00 0.00 84 1012.1
20260505220925 15 0.0 0.0 0.00 0.00 0.00 83 1012.6
20260505220428 15 0.0 0.0 0.00 0.00 0.00 84 1012.3
20260505215928 15 0.0 0.0 0.00 0.00 0.00 85 1011.8
20260505215424 15 0.0 0.0 0.00 0.00 0.00 84 1012.0
20260505214927 15 0.0 0.0 0.00 0.00 0.00 86 1012.3
20260505214430 15 0.0 0.0 0.00 0.00 0.00 86 1012.0
20260505213926 15 0.0 0.0 0.00 0.00 0.00 87 1011.8
20260505213429 15 0.0 0.0 0.00 0.00 0.00 88 1012.5
20260505212924 15 0.0 0.0 0.00 0.00 0.00 88 1013.0
20260505212427 15 0.0 0.0 0.00 0.00 0.00 89 1012.9
20260505211923 15 0.0 0.0 0.00 0.00 0.00 90 1012.6
20260505210929 15 0.0 0.0 0.00 0.00 0.00 91 1013.3
20260505205424 14 0.0 0.0 0.00 0.00 0.00 92 1012.3
20260505204430 15 0.0 0.0 0.00 0.00 0.00 92 1013.6
20260505203925 14 0.0 0.0 0.00 0.00 0.00 93 1013.2
20260505203428 14 0.0 0.0 0.00 0.00 0.00 93 1012.5
20260505202924 14 0.0 0.0 0.00 0.00 0.00 93 1012.7
20260505202427 14 0.0 0.0 0.00 0.00 0.00 93 1014.0
20260505201923 14 0.0 0.0 0.00 0.00 0.00 93 1013.3
20260505201426 14 0.0 0.0 0.00 0.00 0.00 93 1013.6
20260505200929 14 0.0 0.0 0.00 0.00 0.00 92 1014.4
20260505200425 14 0.0 0.0 0.00 0.00 0.00 92 1013.6
20260505195424 15 0.0 0.0 0.00 0.00 0.00 92 1013.4
20260505194927 15 0.0 0.0 0.00 0.00 0.00 92 1012.3
20260505194429 15 0.0 0.0 0.00 0.00 0.00 92 1012.5
20260505193925 15 0.0 0.0 0.00 0.00 0.00 91 1012.6
20260505193428 15 0.0 0.0 0.00 0.00 0.00 91 1013.4
20260505192924 15 0.0 0.0 0.00 0.00 0.00 90 1012.9
20260505191930 15 0.0 0.0 0.00 0.00 0.00 90 1012.5
20260505191426 15 0.0 0.0 0.00 0.00 0.00 89 1012.7
20260505190929 16 0.0 0.0 0.00 0.00 0.00 89 1012.5
20260505185424 16 0.0 0.0 0.00 0.00 0.00 88 1012.8
20260505184429 16 0.0 0.0 0.00 0.00 0.00 87 1012.4
20260505183925 16 0.0 0.0 0.00 0.00 0.00 86 1011.9
20260505183428 17 0.0 0.0 0.00 0.00 0.00 85 1012.0
20260505182924 17 0.0 0.0 0.00 0.00 0.00 84 1012.7
20260505182427 17 0.0 0.0 0.00 0.00 0.00 84 1012.1
20260505181426 17 0.0 0.0 0.00 0.00 0.00 84 1012.7
20260505175928 17 0.0 0.0 0.00 0.00 0.00 84 1012.5
20260505175423 17 0.0 0.0 0.00 0.00 0.00 83 1012.4
20260505174926 17 0.0 0.0 0.00 0.00 0.00 83 1012.8
20260505174429 17 0.0 0.0 0.00 0.00 0.00 83 1012.1
20260505173925 17 0.0 0.0 0.00 0.00 0.00 83 1012.0
20260505173428 17 0.0 0.0 0.00 0.00 0.00 82 1013.1
20260505172924 17 0.0 0.0 0.00 0.00 0.00 82 1012.6
20260505172427 17 0.0 0.0 0.00 0.00 0.00 84 1012.1
20260505171426 17 0.0 0.0 0.00 0.00 0.00 83 1012.5
20260505170928 18 0.0 0.0 0.00 0.00 0.00 81 1012.4
20260505170424 18 0.0 0.0 0.00 0.00 0.00 82 1012.6
20260505165927 18 0.0 0.0 0.00 0.00 0.00 82 1012.4
20260505164926 18 0.0 0.0 0.00 0.00 0.00 80 1011.9
20260505163925 18 0.0 0.0 0.00 0.00 0.00 79 1011.9
20260505162924 18 0.0 0.0 0.00 0.00 0.00 76 1012.0
20260505161930 18 0.0 0.0 0.00 0.00 0.00 78 1012.2
20260505161425 18 0.0 0.0 0.00 0.00 0.00 78 1013.3
20260505160928 18 0.0 0.0 0.00 0.00 0.00 79 1013.1
20260505152923 18 0.0 0.0 0.00 0.00 0.00 78 1013.7
20260505152426 18 0.0 0.0 0.00 0.00 0.00 78 1013.1
20260505151928 18 0.0 0.0 0.00 0.00 0.00 79 1014.5
20260505151424 18 0.0 0.0 0.00 0.00 0.00 78 1013.3
20260505150927 18 0.0 0.0 0.00 0.00 0.00 78 1013.5
20260505150429 18 0.0 0.0 0.00 0.00 0.00 78 1013.3
20260505140429 20 0.0 0.0 0.00 0.00 0.00 72 1013.5
20260505124923 19 0.0 0.0 0.00 0.00 0.00 79 1014.3
20260505124426 19 0.0 0.0 0.00 0.00 0.00 75 1013.6
20260505123929 19 0.0 0.0 0.00 0.00 0.00 80 1013.5
20260505123425 19 0.0 0.0 0.00 0.00 0.00 78 1013.6
20260505122928 19 0.0 0.0 0.00 0.00 0.00 75 1012.9
20260505122424 20 0.0 0.0 0.00 0.00 0.00 76 1013.7
20260505121926 19 0.0 0.0 0.00 0.00 0.00 80 1013.8
20260505121430 18 0.0 0.0 0.00 0.00 0.00 79 1013.7
20260505120925 18 0.0 0.0 0.00 0.00 0.00 79 1013.6
20260505120428 19 0.0 0.0 0.00 0.00 0.00 77 1012.9
20260505115424 20 0.0 0.0 0.00 0.00 2.92 78 1013.0
20260505113925 18 0.0 0.0 0.00 0.00 2.92 79 1013.4
20260505113428 19 0.0 0.0 0.00 0.00 2.92 80 1013.2
20260505112924 18 0.0 0.0 0.00 0.00 2.92 81 1013.7
20260505112427 18 0.0 0.0 0.00 0.00 2.92 81 1014.0
20260505111929 18 0.0 0.0 0.00 0.00 2.92 80 1013.1
20260505111426 18 0.0 0.0 0.00 0.00 2.92 79 1013.4
20260505110928 19 0.0 0.0 0.00 0.00 2.92 80 1014.0
20260505110424 19 0.0 0.0 0.00 0.00 2.92 79 1012.7
20260505101929 18 0.0 0.0 0.00 0.00 2.92 84 1013.2
20260505101425 18 0.0 0.0 0.00 0.00 2.92 84 1013.0
20260505100927 18 0.0 0.0 0.00 0.00 2.92 80 1013.2
20260505100423 18 0.0 0.0 0.00 0.00 2.92 81 1013.2
20260505095926 18 0.0 0.0 0.00 0.00 2.92 79 1012.5
20260505095429 18 0.0 0.0 0.00 0.00 2.92 85 1013.1
20260505094925 17 0.0 0.0 0.00 0.00 2.92 82 1013.6
20260505094427 17 0.0 0.0 0.00 0.00 2.92 85 1012.9
20260505093924 17 0.0 0.0 0.00 0.00 2.92 82 1012.9
20260505093426 17 0.0 0.0 0.00 0.00 2.92 86 1012.8
20260505092929 17 0.0 0.0 0.00 0.00 2.92 83 1012.6
20260505092425 16 0.0 0.0 0.00 0.00 2.92 85 1013.2
20260505091928 16 0.0 0.0 0.00 0.00 2.92 86 1012.8
20260505091424 15 0.0 0.0 0.00 0.00 2.92 86 1012.3
20260505090927 15 0.0 0.0 0.00 0.00 2.92 86 1012.3
20260505090429 15 0.0 0.0 0.00 0.00 2.92 87 1012.9
20260505085925 15 0.0 0.0 0.00 0.00 2.92 88 1013.7
20260505085428 15 0.0 0.0 0.00 0.00 2.92 89 1012.5
20260505084924 15 0.0 0.0 0.00 0.00 2.92 91 1013.6
20260505084427 14 0.0 0.0 0.00 0.00 2.92 91 1012.7
20260505083929 14 0.0 0.0 0.00 0.00 2.92 91 1013.0
20260505083425 14 0.0 0.0 0.00 0.00 2.92 91 1013.1
20260505082424 14 0.0 0.0 0.00 0.00 2.92 91 1013.0
20260505081927 13 0.0 0.0 0.00 0.00 2.92 92 1012.5
20260505081430 13 0.0 0.0 0.00 0.00 2.92 93 1012.7
20260505080926 13 0.0 0.0 0.00 0.00 2.92 93 1012.1
20260505075924 13 0.0 0.0 0.00 0.00 2.92 92 1013.0
20260505075427 13 0.0 0.0 0.00 0.00 2.92 93 1013.1
20260505074930 13 0.0 0.0 0.00 0.00 2.92 93 1013.0
20260505074426 13 0.0 0.0 0.00 0.00 2.92 94 1013.2
20260505073929 13 0.0 0.0 0.00 0.00 2.92 94 1013.2
20260505073425 13 0.0 0.0 0.00 0.00 2.92 95 1012.9
20260505072927 13 0.0 0.0 0.00 0.00 2.92 95 1012.3
20260505072423 13 0.0 0.0 0.00 0.00 2.90 95 1012.7
20260505071429 13 0.0 0.0 0.00 0.00 2.87 95 1013.1
20260505070924 13 0.0 0.0 0.00 0.00 2.84 96 1013.4
20260505070427 13 0.0 0.0 0.00 0.00 2.79 95 1013.4
20260505065930 13 0.0 0.0 0.00 0.00 2.77 95 1013.0
20260505065425 13 0.0 0.0 0.00 0.00 2.74 95 1013.2
20260505064930 13 0.0 0.0 0.00 0.00 2.67 95 1013.6
20260505064424 13 0.0 0.0 0.00 0.00 2.59 95 1013.0
20260505063926 13 0.0 0.0 0.00 0.00 2.49 94 1013.2
20260505062924 13 0.0 0.0 0.00 0.00 2.34 95 1013.9
20260505062427 13 0.0 0.0 0.00 0.00 2.29 95 1013.6
20260505061929 13 0.0 0.0 0.00 0.00 2.21 95 1012.6
20260505061425 13 0.0 0.0 0.00 0.00 2.11 94 1013.6
20260505060927 13 0.0 0.0 0.00 0.00 2.01 94 1011.5
20260505060430 13 0.0 0.0 0.00 0.00 1.88 94 1011.4
20260505055926 13 0.0 0.0 0.00 0.00 1.83 94 1010.8
20260505054924 13 0.0 0.0 0.00 0.00 1.75 94 1011.2